This is the latest recevied weather packets stored in our database for station/object N2ZVN. If no packets are shown the sender has not sent any weather packets the latest 10 day(s).
| Time | Temp. | Humidity | Pressure | Rain* | Wind** | Luminosity | Snow |
|---|---|---|---|---|---|---|---|
| 1777690648 | 6.11° C | 78% | 1014.4 hPa | 0 mm | - | 0 W/m² | - |
| 1777690346 | 6.11° C | 80% | 1014.4 hPa | 0 mm | - | 0 W/m² | - |
| 1777690043 | 5.56° C | 81% | 1014.2 hPa | 0 mm | - | 0 W/m² | - |
| 1777689741 | 5.56° C | 81% | 1014.3 hPa | 0 mm | - | 0 W/m² | - |
| 1777689439 | 5.56° C | 85% | 1014.1 hPa | 0 mm | - | 0 W/m² | - |
| 1777689136 | 5.56° C | 86% | 1014.3 hPa | 0 mm | - | 0 W/m² | - |
| 1777688834 | 5.56° C | 92% | 1014.3 hPa | 0 mm | - | 0 W/m² | - |
| 1777688530 | 5.56° C | 92% | 1014.1 hPa | 0 mm | - | 0 W/m² | - |
| 1777688227 | 5.56° C | 92% | 1014.1 hPa | 0 mm | - | 0 W/m² | - |
| 1777687924 | 5.56° C | 91% | 1014.2 hPa | 0 mm | - | 0 W/m² | - |
| 1777687622 | 5° C | 92% | 1014 hPa | 0 mm | - | 0 W/m² | - |
| 1777687318 | 5° C | 92% | 1014 hPa | 0 mm | - | 0 W/m² | - |
| 1777687017 | 5° C | 92% | 1013.9 hPa | 0 mm | - | 0 W/m² | - |
| 1777686712 | 5.56° C | 91% | 1014 hPa | 0 mm | - | 0 W/m² | - |
| 1777686410 | 5.56° C | 90% | 1014 hPa | 0 mm | - | 0 W/m² | - |
| 1777686107 | 5.56° C | 90% | 1014 hPa | 0 mm | - | 0 W/m² | - |
| 1777685803 | 5.56° C | 90% | 1013.8 hPa | 0 mm | - | 0 W/m² | - |
| 1777685498 | 5.56° C | 90% | 1013.8 hPa | 0 mm | - | 0 W/m² | - |
| 1777685196 | 5.56° C | 89% | 1013.9 hPa | 0 mm | - | 0 W/m² | - |
| 1777684894 | 5.56° C | 89% | 1014.1 hPa | 0 mm | - | 0 W/m² | - |
| 1777684590 | 5.56° C | 89% | 1013.8 hPa | 0 mm | - | 0 W/m² | - |
| 1777684286 | 6.11° C | 89% | 1013.7 hPa | 0 mm | - | 0 W/m² | - |
| 1777683984 | 6.11° C | 87% | 1013.5 hPa | 0 mm | - | 0 W/m² | - |
| 1777683680 | 6.11° C | 87% | 1013.4 hPa | 0 mm | - | 0 W/m² | - |
| 1777683378 | 6.11° C | 86% | 1013.2 hPa | 0 mm | - | 0 W/m² | - |
* Rain latest hour (hover to see other rain measurements)
** Current wind speed in m/s (hover to see current wind gust speed)